Location: Drummondville
(45.8830°N, 72.4830°W)
Time: 04:28:11
(UTC-05:00)

OTV 5 (USA 277) - Pass Details

Date: 16 November 2017
Orbit: 404 x 417 km, 43.0° (Epoch: 07 September)

Event Time Altitude Azimuth Distance (km) Brightness Sun altitude
Exits shadow 05:08:57 40° 219° (SW) 608 ? -17.8°
Maximum altitude 05:09:29 45° 189° (S) 564 ? -17.7°
Drops below altitude 10° 05:12:38 10° 116° (ESE) 1,454 ? -17.2°
Sets 05:14:46 0° 109° (ESE) 2,312 ? -16.8°
